Parsons, KS

10:07 AM CST on November 15, 2019 (GMT -0600)
Tri-City

Weather History for KPPF - October, 2019

Change the Weather History Date:

Monday, October 21, 2019

  Actual Average Record
Temperature  
Mean Temperature 55 °F -  
Max Temperature 66 °F 69 °F 85 °F (1978)
Min Temperature 44 °F 45 °F 23 °F (1989)
Degree Days  
Heating Degree Days 10    
Growing Degree Days 5 (Base 50)    
Moisture  
Dew Point 40 °F    
Average Humidity 61    
Maximum Humidity 96    
Minimum Humidity 28    
Precipitation  
Precipitation 0.00 in - - ()
Sea Level Pressure  
Sea Level Pressure 29.73 in    
Wind  
Wind Speed 12 mph ()    
Max Wind Speed 24 mph    
Max Gust Speed 36 mph    
Visibility 8.5 miles    
Events Thunderstorm    
Averages and records for this station are not official NWS values.
T = Trace of Precipitation, MM = Missing Value Source: Averaged Metar Reports

Daily Weather History Graph

Daily Weather History Graph

Search for Another Location

Airport or City:

Astronomy

Oct. 21, 2019 Rise Set
Actual Time 7:35 AM CDT 6:37 PM CDT
Civil Twilight 7:09 AM CDT 7:03 PM CDT
Nautical Twilight 6:38 AM CDT 7:34 PM CDT
Astronomical Twilight 6:08 AM CDT 8:04 PM CDT
Moon No Moon Rise 2:49 PM CDT (10/21)
Length of Visible Light 11h 54m
Length of Day
11h 01m
Waning Gibbous, 48% of the Moon is Illuminated
Oct 21
Waning Gibbous
Oct 27
New
Nov 4
First Quarter
Nov 12
Full
Nov 19
Last Quarter

Hourly Weather History & Observations

Time (CDT) Temp. Windchill Dew Point Humidity Pressure Visibility Wind Dir Wind Speed Gust Speed Precip Events Conditions
12:04 AM 60.1 °F - 59.0 °F 96% 29.59 in 10.0 mi NW 24.2 mph 35.7 mph 0.00 in Thunderstorm Overcast
12:21 AM 57.0 °F - 52.0 °F 83% 29.56 in 10.0 mi North 18.4 mph 27.6 mph 0.00 in   Overcast
12:39 AM 55.0 °F - 50.0 °F 83% 29.56 in 10.0 mi North 17.3 mph 28.8 mph 0.00 in   Overcast
12:52 AM 53.1 °F - 48.0 °F 83% 29.56 in 10.0 mi North 11.5 mph 24.2 mph 0.00 in   Overcast
1:52 AM 51.1 °F - 46.9 °F 86% 29.57 in 10.0 mi North 4.6 mph - N/A   Clear
2:52 AM 48.0 °F - 46.0 °F 93% 29.63 in 4.0 mi West 4.6 mph - N/A   Clear
3:52 AM 46.9 °F - 45.0 °F 93% 29.65 in 9.0 mi WSW 4.6 mph - N/A   Clear
4:52 AM 46.9 °F - 41.0 °F 80% 29.65 in 7.0 mi WSW 5.8 mph - N/A   Clear
5:52 AM 46.0 °F 42.5 °F 39.0 °F 76% 29.67 in 4.0 mi West 6.9 mph - N/A   Haze
6:52 AM 45.0 °F 41.8 °F 37.9 °F 76% 29.67 in 6.0 mi WSW 5.8 mph - N/A   Haze
7:52 AM 44.1 °F 40.8 °F 37.9 °F 79% 29.69 in 6.0 mi WSW 5.8 mph - N/A   Haze
8:52 AM 48.9 °F - 39.9 °F 71% 29.72 in 6.0 mi WSW 6.9 mph - N/A   Haze
9:05 AM 50.0 °F - 39.9 °F 68% 29.73 in 2.0 mi WSW 8.1 mph - N/A   Haze
9:48 AM 53.6 °F - 41.0 °F 62% 29.74 in 5.0 mi WSW 10.4 mph 21.9 mph N/A   Haze
9:52 AM 53.1 °F - 41.0 °F 64% 29.73 in 9.0 mi West 12.7 mph 17.3 mph N/A   Clear
10:52 AM 57.0 °F - 41.0 °F 55% 29.73 in 9.0 mi WSW 15.0 mph 23.0 mph N/A   Clear
11:37 AM 59.0 °F - 39.9 °F 49% 29.74 in 10.0 mi West 16.1 mph 24.2 mph N/A   Partly Cloudy
11:52 AM 60.1 °F - 39.9 °F 47% 29.73 in 8.0 mi West 12.7 mph 24.2 mph N/A   Clear
12:37 PM 62.1 °F - 39.0 °F 43% 29.74 in 10.0 mi WSW 17.3 mph 29.9 mph N/A   Partly Cloudy
12:52 PM 64.0 °F - 39.0 °F 40% 29.73 in 10.0 mi West 15.0 mph 31.1 mph N/A   Scattered Clouds
1:52 PM 66.0 °F - 36.0 °F 33% 29.73 in 10.0 mi West 20.7 mph 32.2 mph N/A   Partly Cloudy
2:52 PM 66.0 °F - 34.0 °F 30% 29.74 in 10.0 mi West 19.6 mph 35.7 mph N/A   Clear
3:52 PM 66.0 °F - 32.0 °F 28% 29.75 in 10.0 mi West 17.3 mph 33.4 mph N/A   Partly Cloudy
4:52 PM 66.0 °F - 33.1 °F 29% 29.75 in 10.0 mi West 15.0 mph 28.8 mph N/A   Clear
5:52 PM 63.0 °F - 34.0 °F 34% 29.78 in 10.0 mi West 15.0 mph 26.5 mph N/A   Clear
6:52 PM 59.0 °F - 35.1 °F 41% 29.82 in 10.0 mi WNW 15.0 mph 23.0 mph N/A   Clear
7:52 PM 54.0 °F - 36.0 °F 51% 29.86 in 10.0 mi WNW 5.8 mph - N/A   Clear
8:52 PM 48.9 °F - 37.0 °F 64% 29.90 in 10.0 mi West 5.8 mph - N/A   Clear
9:52 PM 53.1 °F - 35.1 °F 50% 29.92 in 10.0 mi WNW 12.7 mph - N/A   Clear
10:52 PM 51.1 °F - 35.1 °F 54% 29.96 in 10.0 mi WNW 8.1 mph - N/A   Clear
11:52 PM 50.0 °F - 35.1 °F 57% 29.98 in 10.0 mi WNW 8.1 mph - N/A   Clear